Simultaneous Nadir Overpasses (SNOs) Predictions

Prediction of SNOs between AQUA and METOP-B Satellite Orbit:

Table of predicted SNOs for the next 14.0 days since TLE Epoch: 11/25/2017
Index Date (AQUA) Time (AQUA) Lat,Lon (AQUA) SZA (AQUA ) Date (METOP-B) Time (METOP-B) Lat,Lon (METOP-B) SZA (METOP-B ) Distance(km) Time Diff (sec)
1 11/26/2017 03:02:57 -73.78, -51.46 85.35 11/26/2017 03:02:00 -73.76, -51.43 85.36 1.65 57
2 11/26/2017 03:52:25 73.83, 116.06 94.71 11/26/2017 03:52:39 73.82, 116.03 94.70 1.49 14
3 11/26/2017 04:42:02 -74.39, -77.59 84.70 11/26/2017 04:43:09 -74.38, -75.24 84.74 70.31 67
4 11/28/2017 22:37:12 -73.79, 14.94 84.83 11/28/2017 22:36:22 -73.78, 15.00 84.84 2.47 50
5 11/28/2017 23:26:40 73.85,-177.54 95.24 11/28/2017 23:27:01 73.83,-177.55 95.22 2.26 21
6 12/01/2017 18:11:27 -73.76, 81.44 84.40 12/01/2017 18:10:45 -73.79, 81.43 84.38 2.39 42
7 12/01/2017 19:00:55 73.82,-111.04 95.67 12/01/2017 19:01:24 73.83,-111.13 95.68 2.85 29
8 12/04/2017 13:45:43 -73.80, 147.80 83.97 12/04/2017 13:45:08 -73.79, 147.86 83.97 1.81 35
9 12/04/2017 14:35:11 73.86, -44.68 96.10 12/04/2017 14:35:47 73.83, -44.72 96.08 2.88 36
10 12/07/2017 09:19:57 -73.80,-145.74 83.63 12/07/2017 09:19:30 -73.80,-145.72 83.62 0.92 27
11 12/07/2017 10:09:25 73.85, 21.77 96.44 12/07/2017 10:10:09 73.83, 21.69 96.42 3.08 44




NCC Satellite Simultaneous Nadir Overpasses (SNOs) Prediction Service
